Weather History for Syracuse, NY

Change the Weather History Date:

Wednesday, November 20, 2013

  Actual Average Record
Temperature  
Mean Temperature 30 °F 39 °F  
Max Temperature 39 °F 47 °F 75 °F (1991)
Min Temperature 20 °F 32 °F 13 °F (1986)
Degree Days  
Heating Degree Days 35 26  
Month to date heating degree days 446 452  
Since 1 July heating degree days 968 1069  
Cooling Degree Days 0 0  
Month to date cooling degree days 0 0  
Year to date cooling degree days 712 569  
Moisture  
Dew Point 17 °F    
Average Humidity 62    
Maximum Humidity 84    
Minimum Humidity 40    
Precipitation  
Precipitation 0.00 in 0.12 in 0.92 in (1974)
Month to date precipitation 1.75 2.35  
Year to date precipitation 35.44 34.07  
Snow  
Snow 0.00 in 0.40 in 8.10 in (1993)
Month to date snowfall 0.5 4.3  
Since 1 July snowfall 0.5 4.7  
Since 1 September snowfall 0.5 4.7  
Snow Depth 0.00 in    
Sea Level Pressure  
Sea Level Pressure 30.56 in    
Wind  
Wind Speed 4 mph (ENE)    
Max Wind Speed 10 mph    
Max Gust Speed 13 mph    
Visibility 10 miles    
Events      
T = Trace of Precipitation, MM = Missing Value Source: NWS Daily Summary

Daily Weather History Graph

Daily Weather History Graph

Search for Another Location

Airport:

Trip Planner

Search our weather history database for the weather conditions in past years. The results will help you decide how hot, cold, wet, or windy it might be!

Date:

Astronomy

Nov. 20, 2013 Rise Set
Actual Time 7:03 AM EST 4:36 PM EST
Civil Twilight 6:32 AM EST 5:07 PM EST
Nautical Twilight 5:57 AM EST 5:41 PM EST
Astronomical Twilight 5:24 AM EST 6:15 PM EST
Moon 7:17 PM EST (11/20) 9:27 AM EST (11/20)
Length of Visible Light 10h 34m
Length of Day
9h 32m
Waning Gibbous, 91% of the Moon is Illuminated
Nov 20
Waning Gibbous
Nov 25
Last Quarter
Dec 2
New
Dec 9
First Quarter
Dec 17
Full

Hourly Weather History & Observations

Time (EST) Temp. Windchill Dew Point Humidity Pressure Visibility Wind Dir Wind Speed Gust Speed Precip Events Conditions
12:54 AM 26.1 °F 20.5 °F 15.1 °F 63% 30.47 in 10.0 mi North 4.6 mph - N/A   Scattered Clouds
1:54 AM 26.1 °F - 15.1 °F 63% 30.49 in 10.0 mi Calm Calm - N/A   Partly Cloudy
2:54 AM 24.1 °F - 15.1 °F 69% 30.50 in 10.0 mi Calm Calm - N/A   Clear
3:54 AM 23.0 °F 18.4 °F 15.1 °F 72% 30.53 in 10.0 mi North 3.5 mph - N/A   Clear
4:54 AM 23.0 °F 17.0 °F 15.1 °F 72% 30.54 in 10.0 mi NNE 4.6 mph - N/A   Clear
5:54 AM 21.0 °F - 16.0 °F 81% 30.56 in 10.0 mi Calm Calm - N/A   Clear
6:54 AM 19.9 °F - 16.0 °F 85% 30.59 in 10.0 mi Calm Calm - N/A   Scattered Clouds
7:54 AM 21.0 °F - 18.0 °F 88% 30.61 in 10.0 mi Calm Calm - N/A   Scattered Clouds
8:54 AM 26.1 °F 20.5 °F 18.0 °F 71% 30.62 in 10.0 mi ESE 4.6 mph - N/A   Mostly Cloudy
9:54 AM 28.9 °F 21.9 °F 17.1 °F 61% 30.62 in 10.0 mi East 6.9 mph - N/A   Mostly Cloudy
10:54 AM 32.0 °F 28.7 °F 17.1 °F 54% 30.62 in 10.0 mi SSE 3.5 mph - N/A   Mostly Cloudy
11:54 AM 34.0 °F 31.0 °F 17.1 °F 50% 30.60 in 10.0 mi Variable 3.5 mph - N/A   Mostly Cloudy
12:54 PM 35.1 °F - 16.0 °F 46% 30.59 in 10.0 mi Calm Calm - N/A   Mostly Cloudy
1:54 PM 37.0 °F - 16.0 °F 42% 30.58 in 10.0 mi Calm Calm - N/A   Scattered Clouds
2:54 PM 37.9 °F 33.5 °F 18.0 °F 45% 30.56 in 10.0 mi North 5.8 mph - N/A   Scattered Clouds
3:54 PM 34.0 °F 29.8 °F 19.9 °F 56% 30.56 in 10.0 mi NNE 4.6 mph - N/A   Mostly Cloudy
4:54 PM 32.0 °F 28.7 °F 19.0 °F 59% 30.56 in 10.0 mi NE 3.5 mph - N/A   Scattered Clouds
5:54 PM 32.0 °F 25.6 °F 18.0 °F 56% 30.56 in 10.0 mi ENE 6.9 mph - N/A   Mostly Cloudy
6:54 PM 32.0 °F 24.2 °F 18.0 °F 56% 30.56 in 10.0 mi ENE 9.2 mph - N/A   Overcast
7:54 PM 30.0 °F 21.7 °F 18.0 °F 61% 30.57 in 10.0 mi East 9.2 mph - N/A   Mostly Cloudy
8:54 PM 28.9 °F 22.8 °F 18.0 °F 64% 30.56 in 10.0 mi East 5.8 mph - N/A   Overcast
9:54 PM 28.0 °F 20.8 °F 18.0 °F 66% 30.56 in 10.0 mi East 6.9 mph - N/A   Overcast
10:54 PM 28.9 °F 21.9 °F 16.0 °F 58% 30.56 in 10.0 mi East 6.9 mph - N/A   Mostly Cloudy
11:54 PM 27.0 °F 20.5 °F 16.0 °F 63% 30.56 in 10.0 mi East 5.8 mph - N/A   Overcast